Weather History for Greenwood, SC

Change the Weather History Date:

Wednesday, November 21, 2012

  Actual Average (KAND) Record (KAND)
Temperature  
Mean Temperature 50 °F -  
Max Temperature 66 °F 59 °F 76 °F (1991)
Min Temperature 35 °F 39 °F 23 °F (1951)
Degree Days  
Heating Degree Days 14    
Moisture  
Dew Point 37 °F    
Average Humidity 73    
Maximum Humidity 97    
Minimum Humidity 32    
Precipitation  
Precipitation 0.00 in - - ()
Sea Level Pressure  
Sea Level Pressure 30.15 in    
Wind  
Wind Speed 1 mph (NNE)    
Max Wind Speed 9 mph    
Max Gust Speed -    
Visibility 10 miles    
Events      
Averages and records for this station are not official NWS values.
T = Trace of Precipitation, MM = Missing Value Source: NWS Daily Summary

Daily Weather History Graph

Daily Weather History Graph

Search for Another Location

Airport:

Trip Planner

Search our weather history database for the weather conditions in past years. The results will help you decide how hot, cold, wet, or windy it might be!

Date:

Astronomy

Nov. 21, 2012 Rise Set
Actual Time 7:07 AM EST 5:21 PM EST
Civil Twilight 6:40 AM EST 5:48 PM EST
Nautical Twilight 6:10 AM EST 6:18 PM EST
Astronomical Twilight 5:40 AM EST 6:48 PM EST
Moon 1:22 PM EST (11/21) 12:41 AM EST (11/21)
Length of Visible Light 11h 07m
Length of Day
10h 13m
First Quarter, 61% of the Moon is Illuminated
Nov 21
First Quarter
Nov 28
Full
Dec 6
Last Quarter
Dec 13
New
Dec 20
First Quarter

Hourly Weather History & Observations

Time (EST) Temp. Windchill Dew Point Humidity Pressure Visibility Wind Dir Wind Speed Gust Speed Precip Events Conditions
12:56 AM 41.0 °F - 39.0 °F 93% 30.11 in 10.0 mi Calm Calm - N/A   Scattered Clouds
1:56 AM 39.0 °F - 37.0 °F 93% 30.10 in 10.0 mi Calm Calm - N/A   Clear
2:56 AM 37.9 °F - 36.0 °F 93% 30.11 in 10.0 mi Calm Calm - N/A   Clear
3:56 AM 36.0 °F - 35.1 °F 97% 30.11 in 9.0 mi Calm Calm - N/A   Clear
4:56 AM 35.1 °F - 34.0 °F 96% 30.11 in 9.0 mi Calm Calm - N/A   Clear
5:56 AM 35.1 °F - 33.1 °F 92% 30.13 in 9.0 mi Calm Calm - N/A   Clear
6:56 AM 35.1 °F - 33.1 °F 92% 30.14 in 10.0 mi Calm Calm - N/A   Clear
7:56 AM 37.0 °F - 36.0 °F 96% 30.17 in 10.0 mi Calm Calm - N/A   Clear
8:56 AM 45.0 °F 41.8 °F 41.0 °F 86% 30.19 in 10.0 mi North 5.8 mph - N/A   Clear
9:56 AM 51.1 °F - 43.0 °F 74% 30.19 in 10.0 mi ENE 4.6 mph - N/A   Clear
10:56 AM 55.9 °F - 44.1 °F 64% 30.19 in 10.0 mi ENE 6.9 mph - N/A   Clear
11:56 AM 62.1 °F - 42.1 °F 48% 30.17 in 10.0 mi North 3.5 mph - N/A   Clear
12:56 PM 64.9 °F - 37.9 °F 37% 30.15 in 10.0 mi North 8.1 mph - N/A   Clear
1:56 PM 66.0 °F - 36.0 °F 33% 30.13 in 10.0 mi NE 9.2 mph - N/A   Clear
3:56 PM 66.0 °F - 35.1 °F 32% 30.13 in 10.0 mi NE 4.6 mph - N/A   Clear
4:56 PM 63.0 °F - 36.0 °F 37% 30.13 in 10.0 mi Calm Calm - N/A   Clear
5:56 PM 54.0 °F - 37.0 °F 53% 30.15 in 10.0 mi Calm Calm - N/A   Clear
6:56 PM 48.9 °F - 37.9 °F 66% 30.16 in 10.0 mi Calm Calm - N/A   Clear
7:56 PM 46.0 °F - 37.0 °F 71% 30.17 in 10.0 mi Calm Calm - N/A   Clear
8:56 PM 44.1 °F - 37.0 °F 76% 30.17 in 10.0 mi Calm Calm - N/A   Clear
9:56 PM 41.0 °F - 36.0 °F 82% 30.18 in 10.0 mi Calm Calm - N/A   Clear
10:56 PM 39.9 °F - 36.0 °F 86% 30.18 in 10.0 mi Calm Calm - N/A   Clear
11:56 PM 39.0 °F - 35.1 °F 86% 30.18 in 10.0 mi Calm Calm - N/A   Clear